Alamosa, CO

6:59 PM MDT on August 25, 2019 (GMT -0600)
San Luis Valley Regional / Bergman Field

Weather History for KALS - July, 2019

Change the Weather History Date:

Monday, July 22, 2019

  Actual Average Record
Temperature  
Mean Temperature 68 °F 65 °F  
Max Temperature 82 °F 82 °F 91 °F (2018)
Min Temperature 53 °F 48 °F 35 °F (1961)
Degree Days  
Heating Degree Days 0 1  
Month to date heating degree days 27 31  
Since 1 June heating degree days 200 199  
Since 1 July heating degree days 27 31  
Cooling Degree Days 3 1  
Month to date cooling degree days 27 22  
Year to date cooling degree days 36 28  
Since 1 June cooling degree days 36 28  
Growing Degree Days 18 (Base 50)    
Moisture  
Dew Point 45 °F    
Average Humidity 53    
Maximum Humidity 83    
Minimum Humidity 23    
Precipitation  
Precipitation T in 0.03 in 0.41 in (2017)
Month to date precipitation 0.01 0.66  
Year to date precipitation 5.13 3.37  
Snow  
Snow 0.00 in 0.00 in 0.00 in (2002)
Month to date snowfall 0.0 0.0  
Since 1 June snowfall 0.0 0.0  
Since 1 July snowfall 0.0 0.0  
Snow Depth 0.00 in    
Sea Level Pressure  
Sea Level Pressure 30.19 in    
Wind  
Wind Speed 9 mph (ESE)    
Max Wind Speed 30 mph    
Max Gust Speed 42 mph    
Visibility 10 miles    
Events Thunderstorm    
T = Trace of Precipitation, MM = Missing Value Source: NWS Daily Summary

Daily Weather History Graph

Daily Weather History Graph

Search for Another Location

Airport or City:

Astronomy

Jul. 22, 2019 Rise Set
Actual Time 5:59 AM MDT 8:19 PM MDT
Civil Twilight 5:29 AM MDT 8:49 PM MDT
Nautical Twilight 4:53 AM MDT 9:26 PM MDT
Astronomical Twilight 4:12 AM MDT 10:06 PM MDT
Moon 11:48 PM MDT (7/22) 11:13 AM MDT (7/22)
Length of Visible Light 15h 19m
Length of Day
14h 20m
Waning Gibbous, 72% of the Moon is Illuminated
Jul 22
Waning Gibbous
Jul 24
Last Quarter
Jul 31
New
Aug 7
First Quarter
Aug 15
Full

Hourly Weather History & Observations

Time (MDT) Temp. Dew Point Humidity Pressure Visibility Wind Dir Wind Speed Gust Speed Precip Events Conditions
12:52 AM 63.0 °F 46.9 °F 56% 30.12 in 10.0 mi East 26.5 mph 46.0 mph N/A   Overcast
1:52 AM 59.0 °F 48.0 °F 67% 30.11 in 10.0 mi ESE 20.7 mph 29.9 mph 0.00 in   Partly Cloudy
2:52 AM 57.9 °F 46.0 °F 65% 30.12 in 10.0 mi East 13.8 mph 23.0 mph N/A   Clear
3:52 AM 54.0 °F 48.0 °F 80% 30.13 in 10.0 mi NNE 3.5 mph - N/A   Mostly Cloudy
4:52 AM 55.0 °F 46.0 °F 72% 30.15 in 10.0 mi WNW 5.8 mph - N/A   Clear
5:52 AM 54.0 °F 46.9 °F 77% 30.18 in 10.0 mi Calm Calm - N/A   Clear
6:52 AM 54.0 °F 46.9 °F 77% 30.20 in 10.0 mi East 3.5 mph - N/A   Clear
7:52 AM 57.9 °F 48.9 °F 72% 30.22 in 10.0 mi East 3.5 mph - N/A   Clear
8:52 AM 63.0 °F 48.0 °F 58% 30.22 in 10.0 mi Variable 4.6 mph - N/A   Clear
9:52 AM 66.9 °F 46.9 °F 49% 30.20 in 10.0 mi Calm Calm - N/A   Clear
10:52 AM 71.1 °F 45.0 °F 39% 30.18 in 10.0 mi SE 4.6 mph - N/A   Clear
11:52 AM 73.9 °F 43.0 °F 33% 30.17 in 10.0 mi South 4.6 mph - N/A   Clear
12:52 PM 77.0 °F 43.0 °F 30% 30.14 in 10.0 mi Variable 5.8 mph - N/A   Clear
1:52 PM 79.0 °F 41.0 °F 26% 30.12 in 10.0 mi Variable 5.8 mph - N/A   Clear
2:52 PM 81.0 °F 39.0 °F 22% 30.10 in 10.0 mi WSW 13.8 mph 18.4 mph N/A   Clear
3:52 PM 78.1 °F 42.1 °F 28% 30.11 in 10.0 mi West 19.6 mph 27.6 mph N/A Thunderstorm Clear
4:20 PM 81.0 °F 37.9 °F 21% 30.40 in 10.0 mi West 10.4 mph 19.6 mph N/A   Clear
4:52 PM 73.9 °F 45.0 °F 35% 30.16 in 10.0 mi East 10.4 mph - N/A   Mostly Cloudy
5:52 PM 73.0 °F 42.1 °F 33% 30.19 in 10.0 mi ENE 15.0 mph 31.1 mph N/A   Partly Cloudy
6:52 PM 68.0 °F 46.0 °F 45% 30.22 in 10.0 mi NE 15.0 mph 26.5 mph N/A   Clear
7:52 PM 64.9 °F 46.9 °F 52% 30.22 in 10.0 mi ESE 10.4 mph - N/A   Partly Cloudy
8:52 PM 62.1 °F 44.1 °F 52% 30.22 in 10.0 mi East 17.3 mph 29.9 mph N/A   Clear
9:52 PM 61.0 °F 46.0 °F 58% 30.23 in 10.0 mi East 11.5 mph - N/A   Mostly Cloudy
10:52 PM 61.0 °F 45.0 °F 56% 30.23 in 10.0 mi ESE 12.7 mph - N/A   Clear
11:52 PM 57.9 °F 45.0 °F 62% 30.25 in 10.0 mi SE 10.4 mph - N/A   Clear